STARLINK-34758

Last updated on Tue Aug 26 2025 00:02:05 GMT+0000 (Coordinated Universal Time)

1 64945U 25158P 25237.60413123 .00020631 00000+0 52959-3 0 9992 2 64945 97.6025 100.2311 0002468 107.5167 252.6348 15.39351877 5817
UTC large
Height (km)
Speed (km/s)
/
Latitude / Longitude
Inclination (degrees)
Orbital Period (minutes)
Azimuth
Elevation
Range (km)
Doppler Factor

Next 0 passes for location: London (51.5072 / 0.1276)

Sorry there are no passes over London.